Location: Aghk�ilisa
(40.0189°N, 45.0097°E)
Time: 07:44:38
(UTC+00:00)

ATLAS 3B R/B - Pass Details

Date: 21 October 2019
Orbit: 1028 x 1167 km, 63.8° (Epoch: 07 November)

Event Time Altitude Azimuth Distance (km) Brightness Sun altitude
Rises 16:36:10 0° 218° (SW) 3,837 6.0 -28.2°
Reaches altitude 10° 16:38:50 10° 221° (SW) 2,868 5.3 -28.7°
Maximum altitude 16:45:34 72° 305° (NW) 1,091 2.7 -29.9°
Enters shadow 16:47:45 44° 16° (NNE) 1,391 3.2 -30.3°
